This demonstration page uses our WeatherBlox Daily Observations layout. Learn more.

Left ArrowRight Arrow

Hourly Observations for April 9, 2015

Temp ( °F °C ) Dew Point ( °F °C ) Humidity (%) Winds ( mph kmh ) Pressure ( in mb ) Visibility ( mi km ) Precip ( " mm )
12:51 am 00:51 Clear 56 13.3 24 -4.4 29 29 WNW 13 20 29.83 1010 10 16 N/A
1:51 am 01:51 Clear 55 12.8 24 -4.4 30 30 NW 14 22 29.82 1010 10 16 N/A
2:51 am 02:51 Clear 54 12.2 24 -4.4 31 31 WNW 12 19 29.83 1010 10 16 N/A
3:51 am 03:51 Clear 50 10 23 -5 35 35 NNW 8 13 29.83 1010 10 16 N/A
4:51 am 04:51 Clear 49 9.4 23 -5 36 36 WNW 3 6 29.85 1011 10 16 N/A
5:51 am 05:51 Clear 43 6.1 22 -5.6 43 43 S 3 6 29.90 1012 10 16 N/A
6:51 am 06:51 Sunny 47 8.3 25 -3.9 42 42 ESE 3 6 29.91 1013 10 16 N/A
7:51 am 07:51 Sunny 53 11.7 25 -3.9 34 34 SE 3 6 29.93 1013 10 16 N/A
8:51 am 08:51 Sunny 57 13.9 25 -3.9 29 29 VRB 3 6 29.93 1014 10 16 N/A
9:51 am 09:51 Sunny 63 17.2 23 -5 22 22 SE 3 6 29.93 1013 10 16 N/A
10:51 am 10:51 Sunny 66 18.9 23 -5 19 19 SSE 7 11 29.92 1013 10 16 N/A
11:51 am 11:51 Sunny 70 21.1 23 -5 17 17 S 8 13 29.89 1012 10 16 N/A
12:51 pm 12:51 Sunny 72 22.2 20 -6.7 14 14 undefined N/A 29.86 1011 10 16 N/A
1:51 pm 13:51 Sunny 76 24.4 17 -8.3 11 11 ESE 9 15 29.83 1010 10 16 N/A
2:51 pm 14:51 Sunny 77 25 16 -8.9 10 10 N N/A 29.79 1009 10 16 N/A
3:51 pm 15:51 Sunny 80 26.7 16 -8.9 9 9 NE 6 9 29.78 1008 10 16 N/A
4:51 pm 16:51 Sunny 80 26.7 14 -10 8 8 VRB 3 6 29.76 1008 10 16 N/A
5:51 pm 17:51 Sunny 80 26.7 12 -11.1 7 7 N N/A 29.77 1008 10 16 N/A
6:51 pm 18:51 Clear 73 22.8 13 -10.6 10 10 NNW 6 9 29.78 1008 10 16 N/A
7:51 pm 19:51 Clear 65 18.3 15 -9.4 14 14 W 7 11 29.80 1009 10 16 N/A
8:51 pm 20:51 Clear 66 18.9 19 -7.2 16 16 W 13 20 29.82 1010 10 16 N/A
9:51 pm 21:51 Clear 65 18.3 17 -8.3 16 16 NW 12 19 29.82 1010 10 16 N/A
10:51 pm 22:51 Clear 63 17.2 13 -10.6 14 14 NW 9 15 29.82 1010 10 16 N/A
11:51 pm 23:51 Clear 60 15.6 14 -10 16 16 N 3 6 29.84 1011 10 16 N/A

Powered by AerisWeather